| time (UTC) | temp C | wind direction | speed KPH | gust KPH | rain 1hr cm | rain 24hr cm | rain mn cm | humidity % | barometer mb |
| 20260505041542 | 20 | 233 | 0.0 | 1.6 | 0.00 | 0.00 | 0.00 | 68 | 1004.4 |
| 20260505040042 | 21 | 204 | 0.0 | 0.0 | 0.00 | 0.00 | 0.00 | 67 | 1004.8 |
| 20260505034542 | 21 | 266 | 0.0 | 1.6 | 0.00 | 0.00 | 0.00 | 65 | 1004.9 |
| 20260505033043 | 21 | 253 | 0.0 | 1.6 | 0.00 | 0.00 | 0.00 | 64 | 1004.9 |
| 20260505031552 | 22 | 245 | 0.0 | 1.6 | 0.00 | 0.00 | 0.00 | 63 | 1004.7 |
| 20260505030041 | 22 | 189 | 0.0 | 1.6 | 0.00 | 0.00 | 0.00 | 62 | 1004.5 |
| 20260505024547 | 22 | 207 | 0.0 | 4.8 | 0.00 | 0.00 | 0.00 | 61 | 1004.4 |
| 20260505023044 | 23 | 145 | 0.0 | 8.0 | 0.00 | 0.00 | 0.00 | 59 | 1004.2 |
| 20260505021537 | 23 | 178 | 0.0 | 9.7 | 0.00 | 0.00 | 0.00 | 60 | 1003.9 |
| 20260505020037 | 23 | 209 | 0.0 | 4.8 | 0.00 | 0.00 | 0.00 | 60 | 1003.6 |
| 20260505014558 | 23 | 224 | 1.6 | 9.7 | 0.00 | 0.00 | 0.00 | 60 | 1003.3 |
| 20260505013036 | 23 | 276 | 0.0 | 3.2 | 0.00 | 0.00 | 0.00 | 59 | 1003.3 |
| 20260505011541 | 24 | 239 | 0.0 | 6.4 | 0.00 | 0.00 | 0.00 | 58 | 1003.1 |
| 20260505010035 | 24 | 197 | 0.0 | 4.8 | 0.00 | 0.00 | 0.00 | 58 | 1002.6 |
| 20260505004534 | 24 | 131 | 0.0 | 6.4 | 0.00 | 0.00 | 0.00 | 58 | 1002.5 |
| 20260505003034 | 25 | 172 | 1.6 | 8.0 | 0.00 | 0.00 | 0.00 | 57 | 1002.4 |
| 20260505001538 | 25 | 238 | 0.0 | 11.3 | 0.00 | 0.00 | 0.00 | 57 | 1002.5 |
| 20260505000032 | 25 | 271 | 1.6 | 16.1 | 0.00 | 0.00 | 0.00 | 56 | 1002.3 |
| 20260504234531 | 26 | 103 | 3.2 | 12.9 | 0.00 | 0.00 | 0.00 | 54 | 1002.4 |
| 20260504233030 | 26 | 224 | 8.0 | 17.7 | 0.00 | 0.00 | 0.00 | 53 | 1002.4 |
| 20260504231529 | 26 | 232 | 6.4 | 16.1 | 0.00 | 0.00 | 0.00 | 53 | 1002.6 |
| 20260504230028 | 27 | 227 | 1.6 | 12.9 | 0.00 | 0.00 | 0.00 | 51 | 1002.7 |
| 20260504224535 | 27 | 211 | 4.8 | 19.3 | 0.00 | 0.00 | 0.00 | 51 | 1002.5 |
| 20260504223027 | 27 | 188 | 4.8 | 14.5 | 0.00 | 0.00 | 0.00 | 50 | 1002.5 |
| 20260504221527 | 27 | 357 | 8.0 | 17.7 | 0.00 | 0.00 | 0.00 | 49 | 1002.4 |
| 20260504220025 | 27 | 207 | 11.3 | 30.6 | 0.00 | 0.00 | 0.00 | 48 | 1002.4 |
| 20260504214526 | 27 | 244 | 11.3 | 27.4 | 0.00 | 0.00 | 0.00 | 49 | 1002.6 |
| 20260504213024 | 27 | 237 | 6.4 | 17.7 | 0.00 | 0.00 | 0.00 | 49 | 1002.8 |
| 20260504211521 | 27 | 131 | 8.0 | 24.1 | 0.00 | 0.00 | 0.00 | 49 | 1002.7 |
| 20260504210033 | 27 | 230 | 9.7 | 27.4 | 0.00 | 0.00 | 0.00 | 50 | 1002.8 |
| 20260504204529 | 27 | 151 | 8.0 | 24.1 | 0.00 | 0.00 | 0.00 | 48 | 1002.9 |
| 20260504203024 | 28 | 156 | 9.7 | 22.5 | 0.00 | 0.00 | 0.00 | 47 | 1003.0 |
| 20260504201515 | 27 | 215 | 9.7 | 22.5 | 0.00 | 0.00 | 0.00 | 49 | 1003.2 |
| 20260504200013 | 27 | 142 | 3.2 | 20.9 | 0.00 | 0.00 | 0.00 | 53 | 1003.4 |
| 20260504194514 | 27 | 179 | 8.0 | 27.4 | 0.00 | 0.00 | 0.00 | 50 | 1003.4 |
| 20260504193012 | 27 | 153 | 9.7 | 20.9 | 0.00 | 0.00 | 0.00 | 50 | 1003.6 |
| 20260504191509 | 27 | 226 | 6.4 | 19.3 | 0.00 | 0.00 | 0.00 | 52 | 1003.7 |
| 20260504190006 | 26 | 243 | 3.2 | 17.7 | 0.00 | 0.00 | 0.00 | 55 | 1003.8 |
| 20260504184505 | 25 | 329 | 11.3 | 24.1 | 0.00 | 0.00 | 0.00 | 56 | 1003.6 |
| 20260504183008 | 24 | 295 | 6.4 | 20.9 | 0.00 | 0.00 | 0.00 | 56 | 1003.3 |
| 20260504181502 | 25 | 174 | 12.9 | 29.0 | 0.00 | 0.00 | 0.00 | 54 | 1003.4 |
| 20260504180121 | 25 | 206 | 4.8 | 25.7 | 0.00 | 0.00 | 0.00 | 54 | 1004.1 |
| 20260504174558 | 25 | 160 | 6.4 | 24.1 | 0.00 | 0.00 | 0.00 | 54 | 1004.0 |
| 20260504173107 | 24 | 208 | 4.8 | 22.5 | 0.00 | 0.00 | 0.00 | 53 | 1004.5 |
| 20260504171601 | 25 | 239 | 4.8 | 20.9 | 0.00 | 0.00 | 0.00 | 51 | 1004.7 |
| 20260504081544 | 19 | 211 | 1.6 | 12.9 | 0.00 | 0.00 | 0.00 | 60 | 1007.6 |
| 20260504050020 | 20 | 229 | 3.2 | 16.1 | 0.00 | 0.00 | 0.00 | 58 | 1008.7 |
| 20260504044522 | 20 | 136 | 1.6 | 12.9 | 0.00 | 0.00 | 0.00 | 58 | 1008.7 |
| 20260504043016 | 20 | 236 | 3.2 | 9.7 | 0.00 | 0.00 | 0.00 | 59 | 1008.9 |